This demonstration page uses our WeatherBlox Daily Observations layout. Learn more.

Left ArrowRight Arrow

39.01783, -85.05884

Hourly Observations for September 7, 2020

Temp ( °F °C ) Dew Point ( °F °C ) Humidity (%) Winds ( mph kmh ) Pressure ( in mb ) Visibility ( mi km ) Precip ( " mm )
12:52 am 00:52 Mostly Clear 67 19.4 58 14.4 73 73 SSW 7 11 30.01 1016 10 16 0.00 0.00
1:52 am 01:52 Mostly Clear 66 18.9 57 13.9 73 73 SSW 8 13 29.99 1016 10 16 0.00 0.00
2:52 am 02:52 Clear 65 18.3 57 13.9 76 76 SSW 6 9 29.97 1015 10 16 0.00 0.00
3:52 am 03:52 Mostly Clear 63 17.2 56 13.3 78 78 S 7 11 29.96 1015 10 16 0.00 0.00
4:52 am 04:52 Mostly Clear 63 17.2 56 13.3 78 78 S 8 13 29.93 1014 10 16 0.00 0.00
5:52 am 05:52 Mostly Clear 65 18.3 57 13.9 76 76 SSW 10 17 29.93 1014 10 16 0.00 0.00
6:52 am 06:52 Mostly Clear 65 18.3 56 13.3 73 73 SSW 12 19 29.92 1013 10 16 0.00 0.00
7:52 am 07:52 Mostly Sunny 66 18.9 57 13.9 73 73 SSW 10 17 29.93 1014 10 16 0.00 0.00
8:52 am 08:52 Mostly Sunny 69 20.6 58 14.4 68 68 SSW 9 15 29.93 1014 10 16 0.00 0.00
9:52 am 09:52 Sunny 72 22.2 60 15.6 66 66 SSW 9 15 29.93 1014 10 16 0.00 0.00
10:52 am 10:52 Partly Cloudy 76 24.4 62 16.7 62 62 SSW 13 20 29.94 1014 10 16 0.00 0.00
11:52 am 11:52 Partly Cloudy 79 26.1 63 17.2 58 58 SW 10 17 29.93 1014 10 16 0.00 0.00
12:52 pm 12:52 Mostly Sunny 82 27.8 65 18.3 56 56 SSW 9 15 29.91 1013 10 16 0.00 0.00
1:52 pm 13:52 Partly Cloudy 83 28.3 65 18.3 55 55 SW 15 24 29.90 1013 10 16 0.00 0.00
2:52 pm 14:52 Mostly Sunny 84 28.9 66 18.9 55 55 SSW 14 22 29.88 1012 10 16 0.00 0.00
3:52 pm 15:52 Mostly Cloudy 84 28.9 67 19.4 57 57 SSW 9 15 29.88 1012 10 16 0.00 0.00
4:52 pm 16:52 Mostly Cloudy 83 28.3 66 18.9 57 57 SSW 12 19 29.86 1011 10 16 0.00 0.00
5:52 pm 17:52 Mostly Cloudy 82 27.8 66 18.9 58 58 SSW 13 20 29.85 1011 10 16 0.00 0.00
6:52 pm 18:52 Mostly Cloudy 80 26.7 66 18.9 62 62 SSW 10 17 29.87 1012 10 16 0.00 0.00
7:52 pm 19:52 Cloudy 78 25.6 66 18.9 67 67 S 6 9 29.88 1012 10 16 0.00 0.00
8:52 pm 20:52 Mostly Cloudy 76 24.4 66 18.9 72 72 S 7 11 29.92 1013 10 16 0.00 0.00
9:52 pm 21:52 Mostly Cloudy 74 23.3 65 18.3 74 74 S 8 13 29.93 1013 10 16 0.00 0.00
10:52 pm 22:52 Mostly Cloudy 74 23.3 64 17.8 71 71 S 12 19 29.89 1012 10 16 0.00 0.00
11:52 pm 23:52 Partly Cloudy 73 22.8 64 17.8 74 74 SSW 7 11 29.92 1013 10 16 0.00 0.00

Powered by AerisWeather